Regional Weather Roundup
Issued by NWS

Home | Current Version | Previous Version | Text Only | Print | Product List | Glossary Off
Versions: 1 2 3 4 5 6 7 8 9 10 11 12 13 14 15 16 17 18 19 20 21 22 23 24 25 26 27 28 29 30 31 32 33 34 35 36 37 38 39 40 41 42 43 44 45 46 47 48

000
ASUS45 KBOU 262107
RWRCO

WEATHER ROUNDUP FOR COLORADO
NATIONAL WEATHER SERVICE DENVER/BOULDER CO
300 PM MDT THU MAR 26 2015

NOTE: "FAIR" INDICATES FEW OR NO CLOUDS BELOW 12000 FEET WITH NO
SIGNIFICANT WEATHER AND/OR OBSTRUCTIONS TO VISIBILITY.

COZ001>005-013-030-031-262200-
...NORTHWEST COLORADO...

CITY           SKY/WX    TMP DP  RH WIND       PRES   REMARKS
CRAIG          SUNNY     54  25  32 NW8       30.28F
HAYDEN         MOSUNNY   48  21  34 W14       30.29F
MEEKER         SUNNY     53  24  32 SW5       30.29F
MOUNT WERNER   NOT AVBL
STEAMBOAT SPGS MOSUNNY   44  24  45 N5        30.30F
WALDEN         CLOUDY    39  23  52 SW12      30.27S
$$

COZ006>008-011-262200-
...WEST CENTRAL VALLEYS...

CITY           SKY/WX    TMP DP  RH WIND       PRES   REMARKS
GRAND JUNCTION SUNNY     59  17  19 SE5       30.26F
MONTROSE       SUNNY     57  17  21 SW5       30.30F
EAGLE          MOSUNNY   54  19  26 S6        30.28F
RIFLE          SUNNY     57  21  24 VRB5      30.26F
DELTA          SUNNY     62  16  17 SW3       30.28F
NUCLA          SUNNY     59  18  20 W8        30.32F
$$

COZ017>023-064>068-262200-
...SOUTHWEST COLORADO...

CITY           SKY/WX    TMP DP  RH WIND       PRES   REMARKS
DURANGO        SUNNY     59  14  17 MISG      30.25F
CORTEZ         SUNNY     66  16  14 W16G24    30.23F
PAGOSA SPRINGS SUNNY     55   6  14 SW12G20   30.26F
TELLURIDE      SUNNY     48  17  29 N3        30.37S
WOLF CREEK PAS PTSUNNY   32  12  43 SW13G18   30.41S WCI  22
$$

COZ009-010-012-014-032>034-037-058>063-262200-
...CENTRAL COLORADO...

CITY           SKY/WX    TMP DP  RH WIND       PRES   REMARKS
ASPEN          MOSUNNY   48  22  35 N10       30.29F
BUENA VISTA    MOSUNNY   55  14  19 N22G32    30.20S
COPPER MTN     CLOUDY    34  18  51 W14G25    30.36S WCI  24
BERTHOUD PASS  PTSUNNY   19  12  73 NW37G44   30.30S HAZE    WCI  -1
COTTONWOOD PAS MOSUNNY   48   9  20 W10G21    30.28F
GUNNISON       MOSUNNY   52  18  25 CALM      30.29F
KREMMLING      MOSUNNY   50  19  29 CALM      30.27F
LEADVILLE      MOSUNNY   37  17  44 W21G26    30.28F
SALIDA         MOSUNNY   57  14  18 CALM      30.26F
SUNLIGHT       MOSUNNY   37  21  52 CALM      30.41F
WILKERSON PASS MOSUNNY   36  16  44 N10G24    30.31F
$$

COZ069>075-262200-
...SAN LUIS VALLEY/SANGRE DE CRISTO MOUNTAINS...

CITY           SKY/WX    TMP DP  RH WIND       PRES   REMARKS
ALAMOSA        SUNNY     54   9  16 N3        30.22F
LA VETA PASS   SUNNY     45  16  31 S7        30.27F
SAGUACHE       MOSUNNY   55  14  19 NW17G25   30.22F
$$

COZ035-036-038>040-262200-
...NORTHERN COLORADO FRONT RANGE...

CITY           SKY/WX    TMP DP  RH WIND       PRES   REMARKS
DENVER INTL AP PTSUNNY   59  21  23 NW9       30.13F
DMNS CITY PARK   N/A     60  20  20 N8        30.11F
AURORA         PTSUNNY   57  20  23 NE5       30.14F
FRONT RANGE AP PTSUNNY  N/A N/A N/A MISG        N/A
ERIE MUNI ARPT MOSUNNY   60  18  19 CALM      30.11F
BOULDER MUN AP MOSUNNY   59  21  23 NE7       30.11F
CENTENNIAL     PTSUNNY   57  21  24 NE7       30.13F
BROOMFIELD     PTSUNNY   59  21  23 CALM      30.13F
FORT COLLINS   MOSUNNY   57  27  30 SW7       30.12F
LONGMONT       MOSUNNY   66  23  19 E3        30.12F
$$

COZ041-046-047-076>085-087-088-262200-
...PIKES PEAK/PALMER DIVIDE AND SOUTHERN FOOTHILLS...

CITY           SKY/WX    TMP DP  RH WIND       PRES   REMARKS
COLO. SPRINGS  PTSUNNY   54  17  23 VRB3      30.16F
A. F. ACADEMY  MOSUNNY   53  18  25 VRB2      30.15F
ELLICOTT       MOSUNNY  N/A N/A N/A N13G18    30.15F
FALCON         MOSUNNY   53  17  24 NW8G17    30.18F
FORT CARSON    SUNNY     55  21  26 S6        30.15F
LIMON          SUNNY     56  20  24 NW16G28   30.14F
MONUMENT HILL  SUNNY     50  19  29 NW7       30.17F
TRINIDAD       SUNNY     56  18  22 VRB3      30.17F
$$

COZ042>045-048>051-090-091-262200-
...NORTHEAST COLORADO...

CITY           SKY/WX    TMP DP  RH WIND       PRES   REMARKS
GREELEY ARPT   MOSUNNY   61  27  27 W8        30.10F
AKRON          CLOUDY    56  23  27 NW22G33   30.11F
BURLINGTON     CLOUDY    60  23  24 NW23G31   30.11F
WRAY           CLOUDY    58  24  26 NW26G35   30.10S
STERLING       CLOUDY    59  27  29 N21       30.09F
HOLYOKE        CLOUDY    59  28  31 NW24G41   30.09F
FORT MORGAN    CLOUDY    57  21  24 NW23      30.11F
$$

COZ086-089-092>099-262200-
...SOUTHEAST COLORADO...

CITY           SKY/WX    TMP DP  RH WIND       PRES   REMARKS
PUEBLO         SUNNY     58  19  22 S5        30.14F
LA JUNTA       SUNNY     63  19  18 W8        30.14F
LAMAR          PTSUNNY   62  21  20 NW10      30.11F
SPRINGFIELD    NOT AVBL
$$


USA.gov is the U.S. government's official web portal to all federal, state and local government web resources and services.